This is the latest recevied weather packets stored in our database for station/object SP9TWP-3. If no packets are shown the sender has not sent any weather packets the latest 10 day(s).
| Time | Temp. | Humidity | Pressure | Rain* | Wind** | Luminosity | Snow |
|---|---|---|---|---|---|---|---|
| 1777748478 | 16.67° C | 38% | 1019.7 hPa | - | - | - | - |
| 1777747578 | 17.22° C | 37% | 1019.6 hPa | - | - | - | - |
| 1777746678 | 17.78° C | 35% | 1019.6 hPa | - | - | - | - |
| 1777745778 | 18.33° C | 33% | 1019.6 hPa | - | - | - | - |
| 1777744878 | 18.89° C | 32% | 1019.6 hPa | - | - | - | - |
| 1777743978 | 19.44° C | 31% | 1019.4 hPa | - | - | - | - |
| 1777743077 | 20° C | 31% | 1019.5 hPa | - | - | - | - |
| 1777742177 | 20.56° C | 31% | 1019.4 hPa | - | - | - | - |
| 1777741327 | 20.56° C | 30% | 1019.5 hPa | - | - | - | - |
| 1777741277 | 20.56° C | 30% | 1019.5 hPa | - | - | - | - |
| 1777740376 | 21.11° C | 30% | 1019.4 hPa | - | - | - | - |
| 1777739476 | 21.11° C | 30% | 1019.6 hPa | - | - | - | - |
| 1777738576 | 21.11° C | 29% | 1019.6 hPa | - | - | - | - |
| 1777737675 | 21.11° C | 29% | 1019.8 hPa | - | - | - | - |
| 1777736775 | 21.67° C | 27% | 1019.9 hPa | - | - | - | - |
| 1777735875 | 21.67° C | 27% | 1020 hPa | - | - | - | - |
| 1777734975 | 21.67° C | 23% | 1020 hPa | - | - | - | - |
| 1777734075 | 22.22° C | 23% | 1020.2 hPa | - | - | - | - |
| 1777733175 | 22.22° C | 23% | 1020.2 hPa | - | - | - | - |
| 1777732274 | 22.78° C | 22% | 1020.3 hPa | - | - | - | - |
| 1777731527 | 25.56° C | 19% | 1020.5 hPa | - | - | - | - |
| 1777731374 | 25.56° C | 19% | 1020.5 hPa | - | - | - | - |
| 1777730474 | 26.11° C | 19% | 1020.5 hPa | - | - | - | - |
| 1777729609 | 27.22° C | 18% | 1020.6 hPa | - | - | - | - |
| 1777729574 | 27.22° C | 18% | 1020.6 hPa | - | - | - | - |
* Rain since midnight (hover to see other rain measurements)
** Current wind speed in m/s (hover to see current wind gust speed)